N4MGC Weather Reports


time (UTC)temp
C
wind
direction
speed
KPH
gust
KPH
rain 1hr
cm
rain 24hr
cm
rain mn
cm
humidity
%
barometer
mb
20260906083604 25 79 0.0 0.0 0.00 0.00 0.00 95 1013.2
20260906083103 25 81 1.6 1.6 0.00 0.00 0.00 95 1013.1
20260906082559 25 92 0.0 1.6 0.00 0.00 0.00 96 1012.8
20260906082054 25 99 0.0 0.0 0.00 0.00 0.00 96 1012.5
20260906081550 25 107 0.0 0.0 0.00 0.00 0.00 95 1012.3
20260906081045 25 125 0.0 0.0 0.00 0.00 0.00 94 1012.1
20260906080542 25 123 0.0 0.0 0.00 0.00 0.00 94 1012.2
20260906080038 25 123 0.0 0.0 0.00 0.00 0.00 93 1012.2
20260906075538 25 123 0.0 0.0 0.00 0.00 0.00 92 1012.1
20260906075032 25 123 0.0 0.0 0.00 0.00 0.00 92 1012.1
20260906074527 25 96 0.0 0.0 0.00 0.00 0.00 91 1012.4
20260906074025 25 96 0.0 0.0 0.00 0.00 0.00 91 1012.6
20260906073521 25 95 0.0 0.0 0.00 0.00 0.00 93 1012.7
20260906073017 26 95 0.0 0.0 0.00 0.00 0.00 92 1012.6
20260906072512 26 95 0.0 0.0 0.00 0.00 0.00 90 1012.8
20260906072008 26 95 0.0 0.0 0.00 0.00 0.00 89 1012.8
20260906071504 25 85 0.0 0.0 0.00 0.00 0.00 92 1013.0
20260906070959 25 81 1.6 1.6 0.00 0.00 0.00 94 1012.9
20260906070455 25 96 0.0 0.0 0.00 0.00 0.00 95 1012.8
20260906065950 25 96 0.0 0.0 0.00 0.00 0.00 96 1012.6
20260906065449 25 65 0.0 0.0 0.00 0.00 0.00 97 1013.1
20260906064945 25 94 0.0 0.0 0.00 0.00 0.00 97 1012.8
20260906064441 25 97 0.0 0.0 0.00 0.00 0.00 97 1012.6
20260906063936 25 99 0.0 0.0 0.00 0.00 0.00 96 1012.9
20260906063432 26 98 0.0 0.0 0.00 0.00 0.00 96 1012.6
20260906062926 26 74 0.0 1.6 0.00 0.00 0.00 95 1012.4
20260906062421 26 106 0.0 0.0 0.00 0.00 0.00 94 1012.5
20260906061916 26 97 0.0 0.0 0.00 0.00 0.00 94 1012.5
20260906061412 26 96 0.0 0.0 0.00 0.00 0.00 93 1012.4
20260906060906 26 85 0.0 0.0 0.00 0.00 0.00 92 1012.6
20260906060404 26 132 0.0 0.0 0.00 0.00 0.00 91 1012.4
20260906055900 26 132 0.0 0.0 0.00 0.00 0.00 91 1012.3
20260906055355 26 112 1.6 1.6 0.00 0.00 0.00 91 1012.8
20260906054850 26 73 3.2 3.2 0.00 0.00 0.00 92 1012.9
20260906054345 26 78 1.6 1.6 0.00 0.00 0.00 93 1013.0
20260906053841 26 84 0.0 0.0 0.00 0.00 0.00 95 1013.3
20260906053337 26 80 1.6 1.6 0.00 0.00 0.00 95 1013.3
20260906052832 26 86 0.0 0.0 0.00 0.00 0.00 95 1013.4
20260906052329 26 72 0.0 0.0 0.00 0.00 0.00 96 1013.6
20260906051826 26 66 0.0 0.0 0.00 0.00 0.00 96 1013.4
20260906051325 26 35 0.0 0.0 0.00 0.00 0.00 96 1013.1
20260906050821 26 87 0.0 0.0 0.00 0.00 0.00 96 1013.1
20260906050316 26 112 0.0 0.0 0.00 0.00 0.00 96 1013.0
20260906045814 26 112 0.0 0.0 0.00 0.00 0.00 96 1013.1
20260906045309 26 158 0.0 0.0 0.00 0.00 0.00 96 1012.9
20260906044805 26 158 0.0 0.0 0.00 0.00 0.00 96 1012.9
20260906044300 26 158 0.0 0.0 0.00 0.00 0.00 96 1012.8
20260906043756 26 158 0.0 0.0 0.00 0.00 0.00 95 1012.9
20260906043252 26 158 0.0 0.0 0.00 0.00 0.00 95 1013.0
20260906042751 26 158 0.0 0.0 0.00 0.00 0.00 94 1013.0
20260906042250 26 159 0.0 0.0 0.00 0.00 0.00 94 1012.8
20260906041746 26 159 0.0 0.0 0.00 0.00 0.00 93 1012.7
20260906041241 26 159 0.0 0.0 0.00 0.00 0.00 94 1012.7
20260906040736 27 159 0.0 0.0 0.00 0.00 0.00 93 1012.7
20260906040231 27 159 0.0 0.0 0.00 0.00 0.00 92 1012.7
20260906035727 27 159 0.0 0.0 0.00 0.00 0.00 92 1012.6
20260906035223 27 159 0.0 0.0 0.00 0.00 0.00 92 1012.7
20260906034722 27 159 0.0 0.0 0.00 0.00 0.00 91 1012.6
20260906034217 27 160 0.0 0.0 0.00 0.00 0.00 91 1012.7
20260906033713 27 160 0.0 0.0 0.00 0.00 0.00 91 1012.6
20260906033213 27 150 0.0 0.0 0.00 0.00 0.00 91 1012.8
20260906032710 27 150 0.0 0.0 0.00 0.00 0.00 91 1012.5
20260906032209 27 150 0.0 0.0 0.00 0.00 0.00 90 1012.6
20260906031705 27 150 0.0 0.0 0.00 0.00 0.00 90 1012.6
20260906031200 27 150 0.0 0.0 0.00 0.00 0.00 90 1012.5
20260906030659 28 150 0.0 0.0 0.00 0.00 0.00 89 1012.5
20260906030155 28 150 0.0 0.0 0.00 0.00 0.00 89 1012.5
20260906025654 28 150 0.0 0.0 0.00 0.00 0.00 88 1012.7
20260906025148 28 149 0.0 0.0 0.00 0.00 0.00 88 1012.5
20260906024643 28 148 0.0 0.0 0.00 0.00 0.00 87 1012.3
20260906024136 28 145 0.0 0.0 0.00 0.00 0.00 87 1012.1
20260906023633 28 161 0.0 0.0 0.00 0.00 0.00 87 1012.5
20260906023132 28 160 0.0 0.0 0.00 0.00 0.00 86 1012.4
20260906022627 28 160 0.0 0.0 0.00 0.00 0.00 86 1012.4
20260906022123 28 160 0.0 0.0 0.00 0.00 0.00 86 1012.3
20260906021619 28 150 0.0 0.0 0.00 0.00 0.00 87 1012.2
20260906021118 29 159 0.0 0.0 0.00 0.00 0.00 87 1012.3
20260906020617 29 160 0.0 0.0 0.00 0.00 0.00 87 1012.1
20260906020112 29 159 0.0 0.0 0.00 0.00 0.00 86 1011.9
20260906015607 29 158 0.0 0.0 0.00 0.00 0.00 86 1012.1
20260906015105 29 159 0.0 0.0 0.00 0.00 0.00 86 1011.7
20260906014600 29 159 0.0 0.0 0.00 0.00 0.00 85 1011.7
20260906014056 30 160 0.0 0.0 0.00 0.00 0.00 85 1011.6
20260906013552 30 159 0.0 0.0 0.00 0.00 0.00 84 1011.4
20260906013047 30 158 0.0 1.6 0.00 0.00 0.00 84 1011.3
20260906012542 30 159 1.6 1.6 0.00 0.00 0.00 83 1011.5
20260906012041 30 158 1.6 1.6 0.00 0.00 0.00 83 1011.1
20260906011538 30 162 1.6 1.6 0.00 0.00 0.00 83 1011.0
20260906011037 30 162 0.0 0.0 0.00 0.00 0.00 82 1011.1
20260906010533 30 163 1.6 1.6 0.00 0.00 0.00 82 1011.2
20260906010029 30 158 0.0 0.0 0.00 0.00 0.00 82 1010.9
20260906005528 30 157 0.0 0.0 0.00 0.00 0.00 81 1011.2
20260906005027 30 122 0.0 0.0 0.00 0.00 0.00 81 1011.4
20260906004526 30 129 0.0 0.0 0.00 0.00 0.00 80 1011.3
20260906004022 30 125 0.0 0.0 0.00 0.00 0.00 78 1011.1
20260906003517 30 158 0.0 1.6 0.00 0.00 0.00 78 1010.8
20260906003013 30 131 0.0 0.0 0.00 0.00 0.00 78 1011.0
20260906002507 30 157 1.6 3.2 0.00 0.00 0.00 77 1011.1
20260906002002 30 157 0.0 0.0 0.00 0.00 0.00 77 1010.7
20260906001458 30 157 0.0 1.6 0.00 0.00 0.00 77 1011.0
20260906000952 30 156 0.0 0.0 0.00 0.00 0.00 77 1010.7
20260906000448 30 74 0.0 0.0 0.00 0.00 0.00 77 1010.7
20260905235942 30 74 0.0 0.0 0.00 0.00 0.00 76 1010.8
20260905235442 30 74 0.0 0.0 0.00 0.00 0.00 75 1010.7
20260905234937 31 74 0.0 0.0 0.00 0.00 0.00 75 1010.7
20260905234433 31 74 0.0 0.0 0.00 0.00 0.00 74 1010.7
20260905233927 31 74 0.0 0.0 0.00 0.00 0.00 73 1010.9
20260905233422 31 74 0.0 0.0 0.00 0.00 0.00 72 1010.8
20260905232921 31 74 0.0 0.0 0.00 0.00 0.00 71 1010.7
20260905232417 31 74 0.0 0.0 0.00 0.00 0.00 71 1010.8
20260905231912 32 74 0.0 0.0 0.00 0.00 0.00 71 1010.7
20260905231409 32 74 0.0 0.0 0.00 0.00 0.00 69 1010.7
20260905230905 32 74 0.0 0.0 0.00 0.00 0.00 69 1010.7
20260905230402 32 74 0.0 0.0 0.00 0.00 0.00 70 1010.8
20260905225855 32 74 0.0 0.0 0.00 0.00 0.00 69 1010.8
20260905225351 33 74 0.0 0.0 0.00 0.00 0.00 66 1010.7
20260905224846 33 74 0.0 0.0 0.00 0.00 0.00 63 1010.7
20260905224341 34 74 1.6 1.6 0.00 0.00 0.00 62 1010.6
20260905223836 35 74 0.0 0.0 0.00 0.00 0.00 61 1010.4
20260905223334 35 74 0.0 0.0 0.00 0.00 0.00 54 1010.6
20260905222829 35 67 0.0 0.0 0.00 0.00 0.00 56 1010.4
20260905222327 36 16 0.0 0.0 0.00 0.00 0.00 55 1010.5
20260905221824 36 86 0.0 1.6 0.00 0.00 0.00 52 1010.6
20260905221320 36 69 0.0 0.0 0.00 0.00 0.00 55 1010.4
20260905220816 36 67 1.6 3.2 0.00 0.00 0.00 56 1010.7
20260905220312 36 351 1.6 3.2 0.00 0.00 0.00 50 1010.6
20260905215811 37 83 1.6 1.6 0.00 0.00 0.00 48 1010.5
20260905215307 38 45 0.0 0.0 0.00 0.00 0.00 47 1010.6
20260905214803 37 75 0.0 0.0 0.00 0.00 0.00 47 1010.7
20260905214258 38 73 1.6 1.6 0.00 0.00 0.00 47 1010.6
20260905213753 37 68 0.0 0.0 0.00 0.00 0.00 49 1010.6
20260905213249 37 69 1.6 3.2 0.00 0.00 0.00 47 1010.7
20260905212744 37 42 1.6 1.6 0.00 0.00 0.00 49 1010.7
20260905212238 37 128 3.2 4.8 0.00 0.00 0.00 46 1010.9
20260905211737 38 308 1.6 1.6 0.00 0.00 0.00 45 1011.1
20260905211233 38 75 0.0 0.0 0.00 0.00 0.00 46 1011.2
20260905210730 37 201 1.6 1.6 0.00 0.00 0.00 45 1011.2
20260905210229 38 295 4.8 4.8 0.00 0.00 0.00 46 1011.2
20260905205728 37 93 0.0 0.0 0.00 0.00 0.00 49 1011.1
20260905205222 37 53 0.0 1.6 0.00 0.00 0.00 51 1011.4
20260905204717 37 229 1.6 1.6 0.00 0.00 0.00 51 1011.4
20260905204212 38 197 0.0 0.0 0.00 0.00 0.00 51 1011.3
20260905203712 38 94 1.6 1.6 0.00 0.00 0.00 49 1011.2
20260905203208 37 80 0.0 0.0 0.00 0.00 0.00 49 1011.4
20260905202703 38 207 1.6 3.2 0.00 0.00 0.00 48 1011.4
20260905202158 38 95 1.6 1.6 0.00 0.00 0.00 51 1011.4
20260905201654 38 354 1.6 1.6 0.00 0.00 0.00 46 1011.4
20260905201153 37 140 1.6 1.6 0.00 0.00 0.00 48 1011.3
20260905200649 37 145 0.0 1.6 0.00 0.00 0.00 49 1011.4
20260905200144 38 60 1.6 1.6 0.00 0.00 0.00 48 1011.5
20260905195642 38 112 3.2 3.2 0.00 0.00 0.00 48 1011.5
20260905195137 38 246 1.6 1.6 0.00 0.00 0.00 46 1011.6
20260905194632 37 181 0.0 0.0 0.00 0.00 0.00 51 1011.9
20260905194131 37 80 0.0 1.6 0.00 0.00 0.00 49 1012.0
20260905193627 37 85 1.6 1.6 0.00 0.00 0.00 51 1012.1
20260905193121 37 121 0.0 0.0 0.00 0.00 0.00 53 1012.1
20260905192617 37 111 1.6 1.6 0.00 0.00 0.00 50 1012.0
20260905192113 37 130 0.0 1.6 0.00 0.00 0.00 53 1012.3
20260905191612 37 80 0.0 0.0 0.00 0.00 0.00 51 1012.3
20260905191111 37 322 1.6 3.2 0.00 0.00 0.00 50 1012.5
20260905190609 37 75 0.0 1.6 0.00 0.00 0.00 50 1012.3
20260905190109 37 50 0.0 1.6 0.00 0.00 0.00 52 1012.7
20260905185608 37 111 1.6 1.6 0.00 0.00 0.00 51 1012.7
20260905185102 37 65 0.0 1.6 0.00 0.00 0.00 50 1012.7
20260905184557 37 116 0.0 0.0 0.00 0.00 0.00 52 1012.8
20260905184055 37 60 4.8 4.8 0.00 0.00 0.00 50 1012.8
20260905183550 36 105 0.0 1.6 0.00 0.00 0.00 51 1012.7
20260905183045 36 300 1.6 3.2 0.00 0.00 0.00 51 1013.1
20260905182544 36 87 3.2 3.2 0.00 0.00 0.00 51 1013.0
20260905182038 36 82 0.0 1.6 0.00 0.00 0.00 52 1013.1
20260905181533 36 80 0.0 1.6 0.00 0.00 0.00 53 1013.2
20260905181033 36 52 0.0 1.6 0.00 0.00 0.00 54 1013.4
20260905180527 36 49 0.0 0.0 0.00 0.00 0.00 56 1013.4
20260905180023 36 51 4.8 4.8 0.00 0.00 0.00 53 1013.6
20260905175522 36 98 0.0 1.6 0.00 0.00 0.00 53 1013.5
20260905175018 36 90 0.0 1.6 0.00 0.00 0.00 55 1013.7
20260905174513 37 206 0.0 1.6 0.00 0.00 0.00 52 1013.8
20260905174009 36 80 0.0 1.6 0.00 0.00 0.00 55 1013.8
20260905173505 36 224 1.6 1.6 0.00 0.00 0.00 56 1013.7
20260905173000 35 88 0.0 1.6 0.00 0.00 0.00 57 1013.8
20260905172458 35 71 0.0 1.6 0.00 0.00 0.00 57 1013.8
20260905171954 35 255 0.0 1.6 0.00 0.00 0.00 55 1014.0
20260905171450 36 83 0.0 1.6 0.00 0.00 0.00 54 1014.0
20260905170946 36 121 0.0 0.0 0.00 0.00 0.00 55 1014.1
20260905170442 35 187 0.0 0.0 0.00 0.00 0.00 56 1014.1
20260905165942 35 121 0.0 0.0 0.00 0.00 0.00 57 1014.2
20260905165437 35 114 0.0 0.0 0.00 0.00 0.00 58 1014.2
20260905164932 35 132 1.6 1.6 0.00 0.00 0.00 56 1014.3
20260905164426 35 248 1.6 1.6 0.00 0.00 0.00 57 1014.2
20260905163921 35 74 3.2 3.2 0.00 0.00 0.00 59 1014.2
20260905163418 35 87 1.6 1.6 0.00 0.00 0.00 63 1014.5
20260905162914 35 180 0.0 0.0 0.00 0.00 0.00 64 1014.3
20260905162408 35 68 0.0 0.0 0.00 0.00 0.00 63 1014.5
20260905161903 34 73 0.0 0.0 0.00 0.00 0.00 65 1014.4
20260905161403 33 89 1.6 1.6 0.00 0.00 0.00 64 1014.6
20260905160901 34 53 0.0 1.6 0.00 0.00 0.00 63 1014.5
20260905160355 33 65 1.6 1.6 0.00 0.00 0.00 67 1014.4
20260905155854 33 261 1.6 3.2 0.00 0.00 0.00 65 1014.7
20260905155349 33 78 3.2 4.8 0.00 0.00 0.00 68 1014.6
20260905154848 32 65 1.6 3.2 0.00 0.00 0.00 69 1014.6
20260905154344 32 69 1.6 3.2 0.00 0.00 0.00 70 1014.7
20260905153839 32 71 3.2 3.2 0.00 0.00 0.00 71 1014.7
20260905153336 32 60 1.6 1.6 0.00 0.00 0.00 72 1014.7
20260905152835 31 71 0.0 0.0 0.00 0.00 0.00 73 1014.8
20260905152334 31 62 3.2 4.8 0.00 0.00 0.00 74 1014.6
20260905151830 31 82 1.6 1.6 0.00 0.00 0.00 76 1015.0
20260905151325 31 75 0.0 1.6 0.00 0.00 0.00 76 1014.9
20260905150825 31 83 0.0 0.0 0.00 0.00 0.00 76 1015.0
20260905150319 30 74 1.6 3.2 0.00 0.00 0.00 79 1014.8
20260905145816 30 157 0.0 0.0 0.00 0.00 0.00 80 1015.0
20260905145311 29 87 1.6 3.2 0.00 0.00 0.00 82 1014.9
20260905144810 29 102 0.0 0.0 0.00 0.00 0.00 83 1014.8
20260905144306 29 43 1.6 1.6 0.00 0.00 0.00 84 1014.9
20260905143804 28 75 1.6 1.6 0.00 0.00 0.00 85 1015.0
20260905143259 28 116 0.0 0.0 0.00 0.00 0.00 85 1014.8
20260905142757 28 146 0.0 0.0 0.00 0.00 0.00 86 1014.6
20260905142252 28 80 0.0 0.0 0.00 0.00 0.00 88 1015.0
20260905141748 27 80 1.6 1.6 0.00 0.00 0.00 90 1014.9
20260905141244 27 133 0.0 0.0 0.00 0.00 0.00 90 1015.2
20260905140738 27 141 0.0 0.0 0.00 0.00 0.00 91 1014.8
20260905140233 26 100 0.0 0.0 0.00 0.00 0.00 93 1015.1
20260905135732 26 98 0.0 1.6 0.00 0.00 0.00 93 1015.2
20260905135228 26 72 0.0 0.0 0.00 0.00 0.00 94 1014.8
20260905134728 26 49 0.0 0.0 0.00 0.00 0.00 94 1014.9
20260905134227 26 106 0.0 0.0 0.00 0.00 0.00 96 1015.1
20260905133722 25 127 0.0 0.0 0.00 0.00 0.00 96 1015.0
20260905133217 25 91 1.6 1.6 0.00 0.00 0.00 96 1015.2
20260905132716 25 97 0.0 0.0 0.00 0.00 0.00 98 1015.2
20260905132212 24 92 0.0 0.0 0.00 0.00 0.00 99 1015.0
20260905131707 24 87 0.0 0.0 0.00 0.00 0.00 99 1015.2
20260905131202 23 84 0.0 0.0 0.00 0.00 0.00 99 1015.3
20260905130656 23 96 0.0 0.0 0.00 0.00 0.00 99 1015.2
20260905130156 23 98 0.0 0.0 0.00 0.00 0.00 99 1015.3
20260905125650 23 101 0.0 0.0 0.00 0.00 0.00 99 1015.3
20260905125146 23 99 0.0 0.0 0.00 0.00 0.00 99 1014.9
20260905124642 23 101 0.0 0.0 0.00 0.00 0.00 99 1015.1
20260905124138 22 108 0.0 0.0 0.00 0.00 0.00 99 1015.0
20260905123633 22 109 0.0 0.0 0.00 0.00 0.00 99 1015.0
20260905123130 22 109 0.0 0.0 0.00 0.00 0.00 99 1015.1
20260905122630 22 109 0.0 0.0 0.00 0.00 0.00 99 1015.1
20260905122125 22 108 0.0 0.0 0.00 0.00 0.00 99 1015.1
20260905121619 22 108 0.0 0.0 0.00 0.00 0.00 99 1015.1
20260905121115 22 108 0.0 0.0 0.00 0.00 0.00 99 1015.1
20260905120614 22 108 0.0 0.0 0.00 0.00 0.00 99 1015.0
20260905120109 22 110 0.0 0.0 0.00 0.00 0.00 99 1015.0
20260905115608 22 109 0.0 0.0 0.00 0.00 0.00 99 1014.7
20260905115103 22 110 0.0 0.0 0.00 0.00 0.00 99 1014.7
20260905114602 22 110 0.0 0.0 0.00 0.00 0.00 99 1014.8
20260905114101 22 110 0.0 0.0 0.00 0.00 0.00 99 1014.6
20260905113556 22 117 0.0 0.0 0.00 0.00 0.00 99 1014.6
20260905113052 22 117 0.0 0.0 0.00 0.00 0.00 99 1014.4
20260905112547 22 117 0.0 0.0 0.00 0.00 0.00 99 1014.2
20260905112042 22 117 0.0 0.0 0.00 0.00 0.00 99 1014.5
20260905111537 22 117 0.0 0.0 0.00 0.00 0.00 99 1014.3
20260905111036 22 117 0.0 0.0 0.00 0.00 0.00 99 1014.4
20260905110535 22 117 0.0 0.0 0.00 0.00 0.00 99 1014.5
20260905110030 22 117 0.0 0.0 0.00 0.00 0.00 99 1014.2
20260905105525 22 118 0.0 0.0 0.00 0.00 0.00 99 1014.5
20260905105024 22 114 0.0 0.0 0.00 0.00 0.00 99 1014.5
20260905104520 22 114 0.0 0.0 0.00 0.00 0.00 99 1014.4
20260905104019 22 114 0.0 0.0 0.00 0.00 0.00 99 1014.5
20260905103515 22 115 0.0 0.0 0.00 0.00 0.00 99 1014.4
20260905103011 22 115 0.0 0.0 0.00 0.00 0.00 99 1014.4
20260905102507 22 115 0.0 0.0 0.00 0.00 0.00 99 1014.3
20260905102003 22 115 0.0 0.0 0.00 0.00 0.00 99 1014.3
20260905101501 22 115 0.0 0.0 0.00 0.00 0.00 99 1014.4
20260905101000 22 115 0.0 0.0 0.00 0.00 0.00 99 1014.3
20260905100456 22 110 0.0 0.0 0.00 0.00 0.00 99 1014.3
20260905095954 22 110 0.0 0.0 0.00 0.00 0.00 99 1014.5
20260905095450 22 121 0.0 0.0 0.00 0.00 0.00 99 1014.0
20260905094945 22 121 0.0 0.0 0.00 0.00 0.00 99 1014.2
20260905094441 22 121 0.0 0.0 0.00 0.00 0.00 99 1014.1
20260905093939 22 121 0.0 0.0 0.00 0.00 0.00 99 1014.2
20260905093435 22 122 0.0 0.0 0.00 0.00 0.00 99 1014.4
20260905092930 22 122 0.0 0.0 0.00 0.00 0.00 99 1014.1
20260905092425 22 122 0.0 0.0 0.00 0.00 0.00 99 1014.0
20260905091920 22 121 0.0 0.0 0.00 0.00 0.00 99 1014.2
20260905091415 22 122 0.0 0.0 0.00 0.00 0.00 99 1014.1
20260905090914 22 109 0.0 0.0 0.00 0.00 0.00 99 1014.0
20260905090409 23 122 0.0 0.0 0.00 0.00 0.00 99 1013.9
20260905085908 23 122 0.0 0.0 0.00 0.00 0.00 99 1013.9
20260905085403 23 115 0.0 0.0 0.00 0.00 0.00 99 1014.1
20260905084859 23 109 0.0 0.0 0.00 0.00 0.00 99 1014.0
20260905084358 23 109 0.0 0.0 0.00 0.00 0.00 99 1013.6
20260905083853 23 128 0.0 0.0 0.00 0.00 0.00 99 1013.9